{"data":{"norad_id":66017,"epoch":"2026-09-20T09:18:31.213728Z","epoch_age_seconds":112761,"freshness":"FRESH","line1":"1 66017U 25232N   26263.38786127  .00016707  00000+0  50420-3 0  9999","line2":"2 66017  53.1580 276.0878 0001128  77.7066 282.4063 15.34419668 53298","mean_motion":15.34419668,"eccentricity":0.0001128,"inclination_deg":53.158,"raan_deg":276.0878,"arg_perigee_deg":77.7066,"mean_anomaly_deg":282.4063,"bstar":0.0005042,"rev_number":5329,"period_min":93.846555152472,"perigee_km":461.87314320551,"apogee_km":463.41642357585,"semimajor_km":6840.7817833907,"source":"CELESTRAK","updated_at":"2026-09-21T09:00:35.770662Z"}}